This demonstration page uses our WeatherBlox Daily Observations layout. Learn more.

Left ArrowRight Arrow

Hourly Observations for July 14, 2022

Temp ( °F °C ) Dew Point ( °F °C ) Humidity (%) Winds ( mph kmh ) Pressure ( in mb ) Visibility ( mi km ) Precip ( " mm )
12:51 am 00:51 Clear with Nearby Thunderstorms 68 20 50 10 53 53 N 5 7 29.88 1012 10 16 0.00 0.00
12:53 am 00:53 Clear with Nearby Thunderstorms 67 19.4 51 10.6 57 57 NNE 5 7 30.00 1016 10 16 0.00 0.00
1:06 am 01:06 Clear 68 20 50 10 53 53 E 6 9 29.88 1012 10 16 0.00 0.00
1:53 am 01:53 Clear 66 18.9 50 10 56 56 E 7 11 29.98 1015 10 16 0.00 0.00
2:53 am 02:53 Clear 68 20 48 8.9 49 49 ESE 3 6 29.99 1016 10 16 0.00 0.00
3:53 am 03:53 Clear 68 20 48 8.9 49 49 E 10 17 30.02 1017 10 16 0.00 0.00
4:53 am 04:53 Mostly Cloudy 69 20.6 48 8.9 47 47 N 6 9 30.02 1017 10 16 0.00 0.00
5:53 am 05:53 Cloudy with Light Rain 63 17.2 52 11.1 68 68 SE 8 13 30.06 1018 10 16 0.00 0.00
6:53 am 06:53 Mostly Cloudy 65 18.3 53 11.7 66 66 NNE 15 24 30.03 1017 10 16 0.01 0.25
7:53 am 07:53 Sunny 67 19.4 55 12.8 66 66 Calm 30.08 1019 10 16 0.00 0.00
8:53 am 08:53 Sunny 73 22.8 54 12.2 51 51 NE 6 9 30.08 1019 10 16 0.00 0.00
9:53 am 09:53 Sunny 74 23.3 54 12.2 50 50 NE 7 11 30.09 1019 10 16 0.00 0.00
10:53 am 10:53 Sunny 78 25.6 54 12.2 43 43 NNE 8 13 30.06 1018 10 16 0.00 0.00
11:53 am 11:53 Sunny 85 29.4 54 12.2 35 35 N 8 13 30.06 1018 10 16 0.00 0.00
12:53 pm 12:53 Sunny 88 31.1 50 10 27 27 W 9 15 30.04 1017 10 16 0.00 0.00
1:53 pm 13:53 Sunny 90 32.2 47 8.3 23 23 undefined N/A 30.01 1016 10 16 0.00 0.00
2:53 pm 14:53 Mostly Sunny 91 32.8 45 7.2 20 20 Calm 29.97 1015 10 16 0.00 0.00
3:53 pm 15:53 Sunny 93 33.9 44 6.7 18 18 W 7 11 29.95 1014 10 16 0.00 0.00
4:53 pm 16:53 Partly Cloudy 88 31.1 47 8.3 24 24 SSW 9 15 29.93 1014 10 16 0.00 0.00
5:22 pm 17:22 Mostly Cloudy with Light Rain 82 27.8 53 11.7 37 37 SSW 12 19 29.66 1004 9 14 0.01 0.25
5:53 pm 17:53 Sunny 89 31.7 47 8.3 23 23 W 7 11 29.94 1014 10 16 0.01 0.25
6:53 pm 18:53 Sunny 87 30.6 50 10 28 28 S 10 17 29.95 1014 10 16 0.00 0.00
7:53 pm 19:53 Partly Cloudy with Light Rain 82 27.8 49 9.4 32 32 WSW 12 19 29.96 1015 10 16 0.00 0.00
8:53 pm 20:53 Clear 74 23.3 51 10.6 45 45 SSE 8 13 29.97 1015 10 16 0.00 0.00
9:53 pm 21:53 Clear 70 21.1 56 13.3 61 61 WNW 12 19 30.02 1017 10 16 0.00 0.00
10:53 pm 22:53 Cloudy 78 25.6 48 8.9 35 35 NE 14 22 30.01 1016 10 16 0.00 0.00
11:53 pm 23:53 Mostly Cloudy 70 21.1 55 12.8 59 59 E 12 19 30.02 1017 10 16 0.06 1.52

Powered by AerisWeather